Location: Bonnesvalyn
(49.1218°N, 3.3177°E)
Time: 16:23:04
(UTC+00:00)

Cosmos 2369 Rocket - Pass Details

Date: 09 February 2023
Orbit: 829 x 852 km, 71.0° (Epoch: 25 March)

Event Time Altitude Azimuth Distance (km) Brightness Sun altitude
Rises 20:23:46 0° 332° (NNW) 3,383 5.9 -34.0°
Reaches altitude 10° 20:26:14 10° 336° (NNW) 2,447 5.0 -34.4°
Enters shadow 20:28:37 26° 344° (NNW) 1,598 3.9 -34.8°
